User: anonymous   Login
Location: B
(0.0000°N, 0.0000°E)
Time: 03:39:38
(UTC+02:00)
Language:

Cosmos 1025 Rocket - Orbit

View from above orbital plane
View from above orbital plane
View from above satellite
View from above satellite

Ground track
Ground track

The orbit data is extracted from the following two-line orbital elements,

1 10974U 78067B   16211.88297360 +.00000082 +00000-0 +64222-5 0  9994
2 10974 082.4835 114.4407 0016809 336.3315 023.7127 14.87169970038546
Epoch (UTC): 29 July 2016 21:11:28
Eccentricity: 0.0016809
inclination: 82.4835°
perigee height: 595 km
apogee height: 618 km
right ascension of ascending node: 114.4407°
argument of perigee: 336.3315°
revolutions per day: 14.87169970
mean anomaly at epoch: 23.7127°
orbit number at epoch: 3854

The dashed part of the orbit path shows where the satellite is in the earth's shadow,  

DLR